SL-14 DEB

Satellite information

Favourite Embed

Satellite Type and Status

DEBRISIN ORBIT

Key statistics

Satellite SL-14 DEB at a glance.

Uptime

14000

Days in orbit

Revolutions

≈ 14.2

Per day

Orbit

LEO

Low Earth Orbit

Inclination

82.5

Latest

Satellite identification and parameters

Extended collection of information and parameters for SL-14 DEB.

Object identification

Identified? True

Debris? True

Object name: SL-14 DEB

International designator: 1987-068BD

Object number (NORAD): 25226

Object ID (CCSDS): 25226

Country: COMMONWEALTH OF INDEPENDENT STATES (CIS)

Current information (Y/N): Y

RCS size: MEDIUM

Orbital parameters

Period: 101.424 minutes

Inclination: 82.5143 deg

SMA: 7204.246 km

Apoapsis: 865.758 km

Periapsis: 786.463 km

RAAN: 327.4973 deg

Eccentricy: 0.00550335

Argument of periapsis: 11.3415 deg

Mean anomaly: 348.899 deg

Mean motion: 14.1977649 rev/day

Mean motion (dot): 0.00005257 rev/day2

B* drag term: 0.0024385516 1/REarth

Two-line elements (TLE)

Creation date: Dec. 16, 2025, 2:19 a.m.

Reference frame: TEME

Reference center: EARTH

Epoch: Dec. 15, 2025, 9:31 p.m. UTC

TLE line 0: 0 SL-14 DEB

TLE line 1: 1 25226U 87068BD 25349.89695405 .00005257 00000-0 24386-2 0 9999

TLE line 2: 2 25226 82.5143 327.4973 0055033 11.3415 348.8990 14.19776490412138

Live tracking on map

Real-time ground track for satellite SL-14 DEB.

In-orbit conjunctions

A list of the most updated potential collisions computed for object SL-14 DEB.

Target Orbit TCA Probability of collision Miss distance Type
FENGYUN 1C DEB SSO 2025-10-18 17:08:20 0.0001922127 167.0 (m) DEBRIS
SL-3 R/B LEO 2024-09-14 08:47:02 0.0001271922 924.0 (m) ROCKET BODY

Associated space launch

Second generation soviet meteorological satellite

SL-14 DEB was lifted into orbit during the mission ‘Tsiklon-3 | Meteor-2 16’, on board a Tsiklon-3 space rocket.

The launch took place on Aug. 18, 1987, 2:27 a.m. from 32/1.

For more information about the launch, click the button.

Launch to space Tsiklon-3 | Meteor-2 16
Tsiklon-3 | Meteor-2 16

Agency: N/A

Status: Launch Successful

Launch date: Aug. 18, 1987, 2:27 a.m. UTC

Rocket: Tsiklon-3

Launch pad: 32/1

Location: Plesetsk Cosmodrome, Russian Federation

...

Latest news about this satellite

There are no fresh news available about this satellite. Check back as we update our databases every day.


Newsletter sign-up

Weekly statistics, charts and insights to help you stay on top of the space industry.